Home > Weather > Saint-Pierre > Past weeks

Flag for Réunion (French) Past Weather in Saint-Pierre, Réunion (French) — Yesterday and Last 2 Weeks

Now
77 °F

Clear.


Feels Like: 79 °F
Forecast: 66 / 76 °F
Wind: 23 mph from Southeast

Location: Saint Airport-Pierre

Current Time: Jun 28, 2016 at 3:27:59 PM

Latest Report: Jun 28, 2016 at 3:00 PM


Visibility: N/A

Pressure: 30.12 "Hg

Humidity: 54%

Dew Point: 59 °F

Location of Saint-PierreLocation

Past Weather in Saint-Pierre — Graph

°F

Saint-Pierre Temperature Yesterday

Maximum temperature yesterday: 77 °F (at 12:00 PM)
Minimum temperature yesterday: 61 °F (at 2:30 AM)
Average temperature yesterday: 69 °F

High & Low Weather Summary for the Past Weeks

 TemperatureHumidityPressure
High81 °F (Jun 22, 1:30 PM)88% (Jun 13, 10:30 PM)30.30 "Hg (Jun 13, 10:30 PM)
Low61 °F (Jun 26, 6:30 AM)39% (Jun 22, 11:00 AM)30.07 "Hg (Jun 16, 3:30 AM)
Average70 °F66%30.18 "Hg
* Reported Jun 13 2:00 PM — Jun 28 2:00 PM, Saint-Pierre, Weather by CustomWeather, © 2016

Note: Actual official high and low records may vary slightly from our data, if they occured in-between our weather recording intervals... More about our weather records

Advertising

Saint-Pierre Weather History for the Previous 24 Hours

Scroll right to see more
 ConditionsComfort  
Time TempWeatherWind HumidityBarometerVisibility
2:00 PM
Tue, Jun 28
77 °FClear.22 mph44%30.12 "HgN/A
1:30 PM77 °FClear.24 mph47%30.12 "HgN/A
1:00 PM77 °FClear.26 mph51%30.12 "HgN/A
12:30 PM77 °FClear.26 mph54%30.15 "HgN/A
12:00 PM77 °FClear.22 mph54%30.15 "HgN/A
11:30 AM77 °FClear.20 mph51%30.18 "HgN/A
11:00 AM77 °FPassing clouds.23 mph54%30.18 "HgN/A
10:30 AM75 °FClear.22 mph50%30.18 "HgN/A
10:00 AM73 °FClear.25 mph57%30.21 "HgN/A
9:30 AM75 °FClear.20 mph50%30.18 "HgN/A
9:00 AM73 °FScattered clouds.18 mph53%30.21 "HgN/A
8:30 AM72 °FCloudy.7 mph50%30.21 "HgN/A
8:00 AM68 °FBroken clouds.8 mph56%30.21 "HgN/A
7:30 AM66 °FScattered clouds.9 mph56%30.21 "HgN/A
7:00 AM63 °FPassing clouds.10 mph64%30.18 "HgN/A
6:30 AM66 °FPassing clouds.3 mph60%30.18 "HgN/A
6:00 AM63 °FClear.12 mph64%30.18 "HgN/A
5:30 AM66 °FClear.6 mph64%30.18 "HgN/A
5:00 AM64 °FClear.10 mph60%30.18 "HgN/A
4:30 AM63 °FClear.8 mph64%30.15 "HgN/A
4:00 AM64 °FClear.3 mph64%30.15 "HgN/A
3:30 AM64 °FClear.8 mph64%30.18 "HgN/A
3:00 AM64 °FClear.6 mph64%30.18 "HgN/A
2:30 AM64 °FClear.7 mph60%30.18 "HgN/A
2:00 AM64 °FClear.12 mph60%30.18 "HgN/A
1:30 AM68 °FClear.9 mph56%30.18 "HgN/A
1:00 AM64 °FClear.7 mph64%30.18 "HgN/A
12:30 AM64 °FClear.7 mph64%30.21 "HgN/A
12:00 AM64 °FClear.9 mph64%30.21 "HgN/A
11:30 PM
Mon, Jun 27
66 °FClear.7 mph64%30.21 "HgN/A
11:00 PM68 °FPassing clouds.14 mph69%30.21 "HgN/A
10:30 PM68 °FPassing clouds.10 mph69%30.21 "HgN/A
10:00 PM70 °FPassing clouds.12 mph69%30.21 "HgN/A
9:30 PM70 °FPassing clouds.16 mph69%30.21 "HgN/A
9:00 PM70 °FClear.16 mph69%30.21 "HgN/A
8:30 PM70 °FClear.16 mph64%30.21 "HgN/A
8:00 PM70 °FClear.13 mph64%30.21 "HgN/A
7:30 PM70 °FPassing clouds.20 mph69%30.18 "HgN/A
7:00 PM70 °FPassing clouds.10 mph69%30.18 "HgN/A
6:30 PM70 °FClear.23 mph69%30.18 "HgN/A
6:00 PM70 °FClear.25 mph69%30.18 "HgN/A
5:30 PM72 °FClear.25 mph65%30.15 "HgN/A
5:00 PM72 °FClear.24 mph65%30.15 "HgN/A
4:30 PM72 °FClear.24 mph65%30.15 "HgN/A
4:00 PM73 °FClear.28 mph65%30.15 "HgN/A
3:30 PM73 °FPassing clouds.28 mph65%30.15 "HgN/A
3:00 PM73 °FPassing clouds.28 mph65%30.15 "HgN/A
Weather by CustomWeather, © 2016

See weather overviewHow to use our weather pages